When you browse on this site, cookies collect data to enhance your experience and personalize the content and advertising you see.
Visit our Privacy Policy to learn more. By continuing to use the site, you agree to this use of cookies and data.
  • In Sweden
  • List of Countries
  • For 7 days
  • Water Temperature
  • Weather Map
  • Weather Widgets
  • user-avatar
    Login

    Hourly Weather Karlstad

    Today, 27 February, Thursday

    Time Temperature Precipitation Wind Pressure Humidity
    00:00 -5°C° 0 mm 3 mps 744 mmHg 69%
    01:00 -4°C° 0 mm 2 mps 744 mmHg 70%
    02:00 -4°C° 0 mm 2 mps 744 mmHg 71%
    03:00 -5°C° 0 mm 2 mps 744 mmHg 72%
    04:00 -5°C° 0 mm 2 mps 744 mmHg 74%
    05:00 -5°C° 0 mm 2 mps 744 mmHg 75%
    06:00 -5°C° 0 mm 2 mps 744 mmHg 76%
    07:00 -5°C° 0 mm 2 mps 744 mmHg 77%
    08:00 -5°C° 0 mm 2 mps 744 mmHg 73%
    09:00 -4°C° 0 mm 2 mps 744 mmHg 70%
    10:00 -3°C° 0 mm 2 mps 744 mmHg 67%
    11:00 -3°C° 0 mm 2 mps 744 mmHg 62%
    12:00 -2°C° 0 mm 2 mps 744 mmHg 57%
    13:00 +1°C° 0 mm 1 mps 744 mmHg 53%
    14:00 +1°C° 0 mm 1 mps 744 mmHg 52%
    15:00 +1°C° 0 mm 1 mps 744 mmHg 52%
    16:00 +1°C° 0 mm 1 mps 743 mmHg 51%
    17:00 0°C° 0 mm 1 mps 743 mmHg 55%
    18:00 -1°C° 0 mm 1 mps 743 mmHg 59%
    19:00 -2°C° 0 mm 1 mps 743 mmHg 62%
    20:00 -2°C° 0 mm 1 mps 744 mmHg 63%
    21:00 -2°C° 0 mm 1 mps 744 mmHg 64%
    22:00 -2°C° 0 mm 1 mps 744 mmHg 65%
    23:00 -2°C° 0 mm 1 mps 744 mmHg 67%

    Tomorrow, 28 February, Friday

    Time Temperature Precipitation Wind Pressure Humidity
    00:00 -2°C° 0 mm 1 mps 744 mmHg 68%
    01:00 -2°C° 0 mm 1 mps 744 mmHg 70%
    02:00 -2°C° 0 mm 1 mps 744 mmHg 72%
    03:00 -3°C° 0 mm 1 mps 744 mmHg 73%
    04:00 -3°C° 0 mm 1 mps 745 mmHg 75%
    05:00 -3°C° 0 mm 1 mps 745 mmHg 76%
    06:00 -3°C° 0 mm 1 mps 745 mmHg 78%
    07:00 -3°C° 0 mm 1 mps 745 mmHg 80%
    08:00 -2°C° 0 mm 1 mps 746 mmHg 76%
    09:00 -1°C° 0 mm 1 mps 746 mmHg 72%
    10:00 0°C° 0 mm 1 mps 746 mmHg 68%
    11:00 +1°C° 0 mm 1 mps 746 mmHg 64%
    12:00 -1°C° 0 mm 2 mps 746 mmHg 59%
    13:00 +1°C° 0 mm 2 mps 747 mmHg 54%
    14:00 +1°C° 0 mm 2 mps 746 mmHg 55%
    15:00 +1°C° 0 mm 2 mps 746 mmHg 56%
    16:00 0°C° 0 mm 3 mps 746 mmHg 58%
    17:00 -1°C° 0 mm 3 mps 746 mmHg 65%
    18:00 -2°C° 0 mm 3 mps 747 mmHg 72%
    19:00 -2°C° 0 mm 3 mps 747 mmHg 80%
    20:00 -2°C° 0 mm 3 mps 747 mmHg 84%
    21:00 -2°C° 0 mm 3 mps 747 mmHg 89%
    22:00 -1°C° 0 mm 3 mps 747 mmHg 94%
    23:00 -2°C° 0 mm 2 mps 747 mmHg 94%

    Day after tomorrow, 29 February, Saturday

    Time Temperature Precipitation Wind Pressure Humidity
    00:00 -2°C° 0 mm 2 mps 746 mmHg 94%
    01:00 -1°C° 0 mm 1 mps 746 mmHg 94%
    02:00 -2°C° 0 mm 2 mps 746 mmHg 94%
    03:00 -2°C° 0 mm 2 mps 746 mmHg 93%
    04:00 -2°C° 0 mm 2 mps 745 mmHg 93%
    05:00 -2°C° 0 mm 3 mps 745 mmHg 94%
    06:00 -1°C° 0 mm 3 mps 745 mmHg 96%
    07:00 -1°C° 0 mm 3 mps 745 mmHg 97%
    08:00 -1°C° 0 mm 4 mps 744 mmHg 93%
    09:00 -1°C° 0 mm 4 mps 744 mmHg 89%
    10:00 0°C° 0 mm 5 mps 743 mmHg 86%
    11:00 0°C° 0 mm 5 mps 742 mmHg 79%
    12:00 +1°C° 0 mm 6 mps 742 mmHg 73%
    13:00 +1°C° 0 mm 6 mps 741 mmHg 66%
    14:00 0°C° 0.2 mm 7 mps 740 mmHg 76%
    15:00 -1°C° 0.2 mm 7 mps 739 mmHg 86%
    16:00 -2°C° 0.2 mm 8 mps 738 mmHg 95%
    17:00 -2°C° 1 mm 8 mps 737 mmHg 96%
    18:00 -2°C° 1 mm 8 mps 736 mmHg 96%
    19:00 -2°C° 1 mm 7 mps 735 mmHg 97%
    20:00 -1°C° 0.7 mm 7 mps 734 mmHg 95%
    21:00 0°C° 0.7 mm 7 mps 733 mmHg 94%
    22:00 +2°C° 0.7 mm 7 mps 732 mmHg 92%
    23:00 +2°C° 1 mm 7 mps 731 mmHg 93%

    1 March, Sunday

    Time Temperature Precipitation Wind Pressure Humidity
    00:00 +2°C° 1 mm 7 mps 731 mmHg 93%
    01:00 +3°C° 1 mm 7 mps 730 mmHg 93%
    02:00 +2°C° 0.6 mm 6 mps 730 mmHg 93%
    03:00 +1°C° 0.6 mm 5 mps 730 mmHg 92%
    04:00 +1°C° 0.6 mm 4 mps 730 mmHg 92%
    05:00 0°C° 0 mm 5 mps 730 mmHg 91%
    06:00 0°C° 0 mm 5 mps 730 mmHg 91%
    07:00 -2°C° 0 mm 6 mps 730 mmHg 91%
    08:00 -1°C° 0.1 mm 6 mps 730 mmHg 92%
    09:00 -1°C° 0.1 mm 7 mps 730 mmHg 93%
    10:00 -1°C° 0.1 mm 7 mps 730 mmHg 94%
    11:00 -1°C° 0.2 mm 8 mps 729 mmHg 93%
    12:00 0°C° 0.2 mm 8 mps 729 mmHg 92%
    13:00 0°C° 0.2 mm 8 mps 728 mmHg 91%
    14:00 0°C° 0.4 mm 8 mps 728 mmHg 92%
    15:00 0°C° 0.4 mm 7 mps 728 mmHg 92%
    16:00 0°C° 0.4 mm 7 mps 728 mmHg 93%
    17:00 0°C° 1.1 mm 7 mps 728 mmHg 93%
    18:00 +1°C° 1.1 mm 6 mps 728 mmHg 94%
    19:00 -1°C° 1.1 mm 6 mps 728 mmHg 95%
    20:00 -1°C° 0.4 mm 6 mps 728 mmHg 95%
    21:00 -1°C° 0.4 mm 7 mps 728 mmHg 96%
    22:00 -1°C° 0.4 mm 8 mps 728 mmHg 97%
    23:00 -1°C° 0.3 mm 8 mps 728 mmHg 96%

    2 March, Monday

    Time Temperature Precipitation Wind Pressure Humidity
    00:00 -1°C° 0.3 mm 9 mps 728 mmHg 95%
    01:00 -1°C° 0.3 mm 9 mps 728 mmHg 94%
    02:00 -1°C° 0.3 mm 9 mps 728 mmHg 94%
    03:00 -1°C° 0.3 mm 9 mps 728 mmHg 94%
    04:00 -1°C° 0.3 mm 9 mps 728 mmHg 95%
    05:00 -1°C° 0.6 mm 8 mps 728 mmHg 95%
    06:00 -1°C° 0.6 mm 8 mps 728 mmHg 95%
    07:00 -1°C° 0.6 mm 7 mps 728 mmHg 95%
    08:00 -1°C° 0.6 mm 7 mps 729 mmHg 95%
    09:00 -1°C° 0.6 mm 7 mps 729 mmHg 96%
    10:00 -1°C° 0.6 mm 7 mps 730 mmHg 96%
    11:00 +1°C° 0.5 mm 6 mps 730 mmHg 95%
    12:00 +1°C° 0.5 mm 6 mps 731 mmHg 95%
    13:00 +1°C° 0.5 mm 5 mps 732 mmHg 95%
    14:00 +1°C° 0.1 mm 4 mps 732 mmHg 92%
    15:00 +1°C° 0.1 mm 3 mps 733 mmHg 89%
    16:00 +1°C° 0.1 mm 3 mps 733 mmHg 86%
    17:00 +1°C° 0.1 mm 2 mps 734 mmHg 89%
    18:00 +2°C° 0.1 mm 1 mps 734 mmHg 91%
    19:00 +1°C° 0.1 mm 1 mps 735 mmHg 94%
    20:00 +1°C° 0.4 mm 1 mps 735 mmHg 95%
    21:00 -1°C° 0.4 mm 2 mps 735 mmHg 96%
    22:00 -1°C° 0.4 mm 2 mps 736 mmHg 97%
    23:00 -1°C° 0.3 mm 3 mps 736 mmHg 96%

    3 March, Tuesday

    Time Temperature Precipitation Wind Pressure Humidity
    00:00 -1°C° 0.3 mm 3 mps 736 mmHg 95%
    01:00 -1°C° 0.3 mm 3 mps 736 mmHg 95%
    02:00 -1°C° 0.2 mm 3 mps 736 mmHg 95%
    03:00 -1°C° 0.2 mm 3 mps 737 mmHg 95%
    04:00 -1°C° 0.2 mm 3 mps 737 mmHg 95%
    05:00 -1°C° 0.2 mm 3 mps 737 mmHg 95%
    06:00 -1°C° 0.2 mm 3 mps 737 mmHg 96%
    07:00 -2°C° 0.2 mm 2 mps 737 mmHg 97%
    08:00 -1°C° 0.2 mm 2 mps 738 mmHg 95%
    09:00 -1°C° 0.2 mm 2 mps 738 mmHg 94%
    10:00 -1°C° 0.2 mm 2 mps 739 mmHg 92%
    11:00 -1°C° 0.3 mm 3 mps 739 mmHg 91%
    12:00 -2°C° 0.3 mm 4 mps 740 mmHg 91%
    13:00 -2°C° 0.3 mm 5 mps 740 mmHg 90%
    14:00 -4°C° 0.1 mm 5 mps 741 mmHg 87%
    15:00 -4°C° 0.1 mm 5 mps 741 mmHg 84%
    16:00 -5°C° 0.1 mm 5 mps 742 mmHg 80%
    17:00 -5°C° 0 mm 5 mps 742 mmHg 82%
    18:00 -5°C° 0 mm 4 mps 743 mmHg 83%
    19:00 -5°C° 0 mm 4 mps 743 mmHg 85%
    20:00 -7°C° 0 mm 4 mps 744 mmHg 86%
    21:00 -6°C° 0 mm 3 mps 744 mmHg 88%
    22:00 -6°C° 0 mm 3 mps 745 mmHg 90%
    23:00 -6°C° 0 mm 3 mps 745 mmHg 89%
    Show more